Total_Precipitation_Accumulation
1.98 1.87 1.32 0.84 0.76 0.60 0.47 0.46 0.44 0.45 0.50 0.70 0.75 0.69 0.78 0.75 0.69 0.69 0.69 0.75 0.85 1.02 1.24 1.45 1.76 2.16 2.42 2.70 2.91 3.11 3.20 3.19 3.28 3.50 3.52 3.34 3.14 2.91 2.55 2.35 2.32 2.25 2.16 2.14
1.67 1.35 0.74 0.57 0.63 0.59 0.49 0.49 0.47 0.46 0.52 0.71 0.75 0.69 0.68 0.67 0.64 0.65 0.70 0.69 0.74 0.81 1.00 1.16 1.44 1.75 2.06 2.35 2.72 2.94 3.13 3.29 3.17 3.05 3.19 3.24 3.22 3.08 2.84 2.62 2.53 2.36 2.23 2.17
1.25 0.89 0.65 0.59 0.59 0.60 0.47 0.44 0.41 0.49 0.60 0.68 0.76 0.78 0.63 0.58 0.54 0.56 0.60 0.59 0.63 0.74 0.86 1.00 1.18 1.41 1.72 2.01 2.37 2.66 2.87 3.12 3.25 3.20 3.32 3.37 3.32 3.18 2.95 2.69 2.53 2.41 2.33 2.26
1.14 0.69 0.64 0.65 0.53 0.50 0.44 0.29 0.36 0.48 0.74 0.77 0.74 0.93 0.58 0.53 0.55 0.55 0.60 0.61 0.60 0.68 0.77 0.90 1.05 1.22 1.44 1.76 2.02 2.28 2.61 2.88 3.11 3.26 3.21 3.12 3.06 2.87 2.68 2.64 2.73 2.64 2.44 2.32
1.10 0.72 0.68 0.71 0.49 0.42 0.39 0.28 0.38 0.53 0.74 0.82 0.60 0.78 0.65 0.51 0.62 0.65 0.67 0.66 0.64 0.65 0.74 0.83 0.96 1.11 1.29 1.56 1.81 1.98 2.25 2.56 2.74 2.77 2.82 2.88 2.85 2.79 2.73 2.78 2.76 2.74 2.53 2.31
0.86 0.67 0.73 0.68 0.48 0.41 0.40 0.48 0.55 0.64 0.99 1.17 0.67 0.79 0.77 0.73 0.80 0.70 0.62 0.62 0.68 0.73 0.79 0.86 0.95 1.06 1.15 1.31 1.55 1.77 1.86 2.09 2.32 2.39 2.47 2.58 2.52 2.55 2.58 2.60 2.68 2.71 2.57 2.33
1.15 0.84 0.65 0.60 0.65 0.53 0.54 0.94 1.30 1.32 1.30 0.93 0.54 0.73 0.90 0.81 0.82 0.82 0.75 0.71 0.77 0.83 0.93 1.00 1.01 1.12 1.16 1.25 1.31 1.53 1.67 1.74 1.92 2.13 2.24 2.26 2.34 2.37 2.39 2.35 2.42 2.61 2.65 2.38
1.16 1.11 0.66 0.55 0.65 0.62 0.54 0.76 1.07 1.04 0.82 0.58 0.48 0.75 0.88 0.80 0.77 0.76 0.76 0.77 0.79 0.92 1.07 1.12 1.13 1.27 1.33 1.35 1.35 1.43 1.51 1.50 1.59 1.80 1.99 2.05 2.16 2.17 2.12 2.07 2.06 2.15 2.32 2.40
0.76 0.75 0.44 0.35 0.38 0.51 0.62 0.60 0.54 0.97 0.81 0.65 0.59 0.61 0.65 0.61 0.65 0.74 0.77 0.77 0.83 0.97 1.13 1.22 1.26 1.31 1.29 1.27 1.37 1.44 1.50 1.45 1.39 1.46 1.59 1.73 1.86 1.91 1.85 1.82 1.79 1.83 1.93 2.09
0.45 0.59 0.44 0.37 0.42 0.52 0.52 0.52 0.70 1.34 1.27 0.87 0.57 0.55 0.78 0.74 0.76 0.76 0.76 0.78 0.87 0.92 1.01 1.14 1.16 1.16 1.20 1.22 1.29 1.41 1.48 1.51 1.43 1.39 1.42 1.51 1.57 1.61 1.60 1.60 1.61 1.59 1.64 1.68
0.32 0.48 0.49 0.52 0.52 0.53 0.52 0.60 0.77 1.02 1.01 1.04 0.72 0.80 0.93 0.83 0.78 0.74 0.72 0.76 0.82 0.85 0.87 0.92 0.93 0.98 1.03 1.08 1.20 1.35 1.46 1.48 1.38 1.41 1.42 1.39 1.42 1.51 1.50 1.43 1.44 1.50 1.50 1.49
0.30 0.46 0.51 0.44 0.32 0.30 0.42 0.49 0.68 1.18 0.99 0.80 0.77 0.84 0.76 0.69 0.65 0.65 0.67 0.71 0.73 0.79 0.82 0.80 0.79 0.76 0.76 0.83 0.94 1.06 1.18 1.22 1.23 1.28 1.37 1.31 1.29 1.43 1.48 1.39 1.33 1.36 1.39 1.30
0.49 0.71 0.84 0.66 0.55 0.45 0.49 0.48 0.65 1.04 1.23 0.94 0.87 0.80 0.64 0.55 0.50 0.53 0.58 0.62 0.65 0.65 0.65 0.62 0.62 0.65 0.63 0.65 0.75 0.87 0.97 1.05 1.14 1.19 1.25 1.22 1.18 1.25 1.31 1.35 1.33 1.30 1.35 1.31
0.67 0.77 0.88 0.96 0.86 0.75 0.65 0.50 0.65 1.23 1.53 0.85 0.62 0.64 0.54 0.50 0.53 0.54 0.54 0.53 0.53 0.52 0.50 0.47 0.47 0.48 0.50 0.53 0.64 0.73 0.79 0.87 1.00 1.07 1.08 1.06 1.07 1.08 1.10 1.14 1.18 1.16 1.16 1.22
0.63 0.90 0.80 0.68 0.58 0.67 0.66 0.54 0.62 0.91 0.83 0.75 0.54 0.51 0.58 0.57 0.58 0.57 0.52 0.46 0.40 0.38 0.37 0.35 0.36 0.37 0.39 0.41 0.46 0.58 0.69 0.77 0.90 1.02 1.04 1.04 1.00 0.97 0.97 0.99 0.97 0.98 1.02 1.08
0.62 0.94 0.90 0.71 0.43 0.46 0.49 0.40 0.46 0.56 0.51 0.50 0.42 0.48 0.45 0.44 0.46 0.48 0.43 0.38 0.34 0.34 0.33 0.29 0.27 0.28 0.31 0.34 0.37 0.46 0.59 0.69 0.80 0.92 0.98 0.99 0.97 0.93 0.91 0.90 0.90 0.88 0.92 0.99
0.60 0.87 1.13 0.83 0.43 0.50 0.56 0.44 0.45 0.52 0.47 0.45 0.54 0.50 0.35 0.35 0.42 0.51 0.46 0.36 0.33 0.33 0.32 0.30 0.28 0.27 0.27 0.29 0.36 0.46 0.56 0.61 0.67 0.74 0.82 0.87 0.88 0.89 0.88 0.87 0.91 0.97 0.99 1.03
0.43 0.69 1.11 0.93 0.69 0.82 0.59 0.36 0.36 0.44 0.46 0.42 0.45 0.37 0.33 0.37 0.39 0.42 0.44 0.40 0.34 0.29 0.27 0.27 0.28 0.27 0.26 0.28 0.34 0.44 0.57 0.65 0.71 0.77 0.80 0.80 0.83 0.88 0.91 0.97 1.05 1.14 1.20 1.23
0.28 0.64 1.07 0.94 0.73 0.49 0.31 0.23 0.32 0.43 0.48 0.38 0.34 0.28 0.24 0.27 0.33 0.35 0.32 0.34 0.35 0.30 0.29 0.29 0.30 0.32 0.31 0.33 0.35 0.42 0.55 0.65 0.72 0.80 0.85 0.87 0.93 1.02 1.06 1.16 1.23 1.26 1.34 1.34
0.22 0.49 1.02 0.96 0.78 0.44 0.30 0.14 0.16 0.32 0.51 0.28 0.24 0.25 0.22 0.23 0.35 0.36 0.33 0.36 0.38 0.34 0.31 0.31 0.30 0.30 0.35 0.39 0.42 0.50 0.63 0.73 0.82 0.90 1.00 1.01 1.03 1.09 1.11 1.14 1.13 1.11 1.12 1.11
0.33 0.57 0.84 0.77 0.74 0.40 0.25 0.10 0.11 0.39 0.51 0.27 0.26 0.27 0.27 0.32 0.39 0.35 0.32 0.35 0.38 0.40 0.40 0.41 0.40 0.44 0.49 0.55 0.61 0.71 0.81 0.94 1.00 1.02 1.07 1.05 1.01 1.02 1.00 0.95 0.89 0.84 0.81 0.77
0.32 0.46 0.51 0.54 0.78 0.54 0.26 0.18 0.35 0.48 0.30 0.25 0.24 0.26 0.27 0.27 0.24 0.24 0.25 0.29 0.32 0.34 0.38 0.44 0.50 0.52 0.55 0.65 0.76 0.85 0.95 1.00 0.97 0.92 0.91 0.85 0.76 0.72 0.69 0.67 0.68 0.67 0.65 0.66
0.33 0.47 0.50 0.52 0.60 0.48 0.35 0.36 0.37 0.32 0.28 0.25 0.26 0.24 0.24 0.24 0.24 0.24 0.24 0.25 0.27 0.27 0.28 0.32 0.40 0.46 0.46 0.53 0.60 0.67 0.68 0.66 0.65 0.64 0.65 0.63 0.58 0.56 0.57 0.58 0.60 0.63 0.63 0.64
0.32 0.30 0.38 0.46 0.44 0.35 0.31 0.27 0.24 0.23 0.25 0.23 0.22 0.20 0.20 0.24 0.22 0.22 0.22 0.22 0.24 0.24 0.25 0.26 0.29 0.33 0.35 0.37 0.41 0.44 0.45 0.45 0.49 0.53 0.55 0.57 0.58 0.54 0.54 0.56 0.58 0.63 0.67 0.68
0.35 0.32 0.37 0.40 0.33 0.27 0.24 0.21 0.22 0.20 0.17 0.17 0.16 0.16 0.18 0.19 0.18 0.20 0.21 0.21 0.22 0.23 0.23 0.25 0.32 0.36 0.39 0.38 0.40 0.42 0.45 0.48 0.51 0.53 0.57 0.60 0.63 0.60 0.58 0.59 0.61 0.66 0.70 0.79
0.31 0.39 0.48 0.46 0.33 0.33 0.29 0.21 0.19 0.19 0.18 0.19 0.20 0.19 0.18 0.20 0.23 0.22 0.24 0.24 0.25 0.25 0.24 0.25 0.29 0.35 0.40 0.40 0.40 0.42 0.46 0.53 0.56 0.55 0.57 0.60 0.64 0.65 0.64 0.60 0.60 0.65 0.70 0.74